Fruitland, IA

3:36 PM CST on February 10, 2016 (GMT -0600)
Muscatine Municipal

Weather History for KMUT - April, 2014

Change the Weather History Date:

Saturday, April 12, 2014

  Actual Average Record
Temperature  
Mean Temperature 68 °F -  
Max Temperature 84 °F 61 °F 84 °F (1971)
Min Temperature 53 °F 39 °F 21 °F (1957)
Cooling Degree Days 4    
Growing Degree Days 18 (Base 50)    
Moisture  
Dew Point 48 °F    
Average Humidity 48    
Maximum Humidity 62    
Minimum Humidity 34    
Precipitation  
Precipitation 0.00 in - - ()
Sea Level Pressure  
Sea Level Pressure 29.75 in    
Wind  
Wind Speed 11 mph (South)    
Max Wind Speed 26 mph    
Max Gust Speed 34 mph    
Visibility 10 miles    
Events      
Averages and records for this station are not official NWS values.
T = Trace of Precipitation, MM = Missing Value Source: NWS Daily Summary

Daily Weather History Graph

Daily Weather History Graph

Search for Another Location

Airport or City:

Trip Planner

Search our weather history database for the weather conditions in past years. The results will help you decide how hot, cold, wet, or windy it might be!

Date:

Astronomy

Apr. 12, 2014 Rise Set
Actual Time 6:29 AM CDT 7:41 PM CDT
Civil Twilight 6:01 AM CDT 8:10 PM CDT
Nautical Twilight 5:27 AM CDT 8:44 PM CDT
Astronomical Twilight 4:51 AM CDT 9:20 PM CDT
Moon 5:18 PM CDT (4/12) 4:58 AM CDT (4/12)
Length of Visible Light 14h 09m
Length of Day
13h 12m
Waxing Gibbous, 93% of the Moon is Illuminated
Apr 12
Waxing Gibbous
Apr 15
Full
Apr 22
Last Quarter
Apr 29
New
May 6
First Quarter

Hourly Weather History & Observations

Time (CDT) Temp. Heat Index Dew Point Humidity Pressure Visibility Wind Dir Wind Speed Gust Speed Precip Events Conditions
12:15 AM 59.0 °F - 32.0 °F 36% 29.95 in 10.0 mi South 9.2 mph - N/A   Clear
12:35 AM 59.0 °F - 32.0 °F 36% 29.96 in 10.0 mi South 9.2 mph - N/A   Clear
12:55 AM 59.0 °F - 32.0 °F 36% 29.95 in 10.0 mi SSE 8.1 mph - N/A   Clear
1:15 AM 59.0 °F - 32.0 °F 36% 29.95 in 10.0 mi SSE 6.9 mph - N/A   Partly Cloudy
1:35 AM 60.8 °F - 32.0 °F 34% 29.96 in 10.0 mi SSE 6.9 mph - N/A   Mostly Cloudy
1:55 AM 59.0 °F - 33.8 °F 39% 29.96 in 10.0 mi SE 3.5 mph - N/A   Overcast
2:15 AM 57.2 °F - 35.6 °F 44% 29.96 in 10.0 mi SSE 3.5 mph - N/A   Overcast
2:35 AM 57.2 °F - 35.6 °F 44% 29.94 in 10.0 mi ESE 5.8 mph - N/A   Mostly Cloudy
2:55 AM 55.4 °F - 39.2 °F 54% 29.94 in 10.0 mi Calm Calm - N/A   Overcast
3:15 AM 55.4 °F - 37.4 °F 51% 29.94 in 10.0 mi NE 4.6 mph - N/A   Overcast
3:35 AM 53.6 °F - 41.0 °F 62% 29.95 in 10.0 mi SE 3.5 mph - N/A   Overcast
3:55 AM 57.2 °F - 35.6 °F 44% 29.92 in 10.0 mi SE 9.2 mph - N/A   Overcast
4:15 AM 59.0 °F - 33.8 °F 39% 29.91 in 10.0 mi SE 10.4 mph - N/A   Scattered Clouds
4:35 AM 59.0 °F - 33.8 °F 39% 29.89 in 10.0 mi SSE 11.5 mph - N/A   Clear
4:55 AM 55.4 °F - 35.6 °F 47% 29.89 in 10.0 mi SE 6.9 mph - N/A   Clear
5:15 AM 57.2 °F - 35.6 °F 44% 29.89 in 10.0 mi SE 6.9 mph - N/A   Clear
5:35 AM 55.4 °F - 37.4 °F 51% 29.88 in 10.0 mi SSE 6.9 mph - N/A   Clear
5:55 AM 57.2 °F - 37.4 °F 48% 29.87 in 10.0 mi SSE 6.9 mph - N/A   Mostly Cloudy
6:15 AM 57.2 °F - 37.4 °F 48% 29.87 in 10.0 mi SE 5.8 mph - N/A   Overcast
6:35 AM 57.2 °F - 39.2 °F 51% 29.87 in 10.0 mi SSE 8.1 mph - N/A   Overcast
6:55 AM 57.2 °F - 39.2 °F 51% 29.87 in 10.0 mi South 5.8 mph - N/A   Overcast
7:15 AM 57.2 °F - 39.2 °F 51% 29.87 in 10.0 mi SSE 5.8 mph - N/A   Overcast
7:35 AM 59.0 °F - 42.8 °F 55% 29.86 in 10.0 mi SSE 9.2 mph - N/A   Overcast
7:55 AM 60.8 °F - 42.8 °F 52% 29.87 in 10.0 mi South 11.5 mph - N/A   Mostly Cloudy
8:15 AM 60.8 °F - 44.6 °F 55% 29.85 in 10.0 mi South 15.0 mph - N/A   Mostly Cloudy
8:35 AM 60.8 °F - 44.6 °F 55% 29.84 in 10.0 mi South 17.3 mph - N/A   Partly Cloudy
8:55 AM 60.8 °F - 46.4 °F 59% 29.83 in 10.0 mi SSE 16.1 mph - N/A   Partly Cloudy
9:15 AM 62.6 °F - 46.4 °F 55% 29.83 in 10.0 mi SSE 15.0 mph 21.9 mph N/A   Partly Cloudy
9:35 AM 64.4 °F - 48.2 °F 56% 29.82 in 10.0 mi South 12.7 mph 19.6 mph N/A   Clear
9:55 AM 68.0 °F - 51.8 °F 56% 29.82 in 10.0 mi South 18.4 mph 24.2 mph N/A   Clear
10:15 AM 69.8 °F - 51.8 °F 53% 29.81 in 10.0 mi South 18.4 mph - N/A   Clear
10:35 AM 71.6 °F - 53.6 °F 53% 29.80 in 10.0 mi South 13.8 mph 23.0 mph N/A   Clear
10:55 AM 73.4 °F - 53.6 °F 50% 29.80 in 10.0 mi South 13.8 mph 21.9 mph N/A   Scattered Clouds
11:15 AM 75.2 °F - 55.4 °F 50% 29.79 in 10.0 mi SSW 17.3 mph - N/A   Scattered Clouds
11:35 AM 75.2 °F - 55.4 °F 50% 29.78 in 10.0 mi SW 16.1 mph 25.3 mph N/A   Scattered Clouds
11:55 AM 75.2 °F - 55.4 °F 50% 29.76 in 10.0 mi SSW 18.4 mph 25.3 mph N/A   Scattered Clouds
12:15 PM 75.2 °F - 55.4 °F 50% 29.74 in 10.0 mi SSW 19.6 mph 26.5 mph N/A   Mostly Cloudy
12:35 PM 77.0 °F - 57.2 °F 50% 29.73 in 10.0 mi South 20.7 mph 27.6 mph N/A   Overcast
12:55 PM 77.0 °F - 57.2 °F 50% 29.72 in 10.0 mi SSW 21.9 mph 28.8 mph N/A   Overcast
1:15 PM 78.8 °F - 57.2 °F 47% 29.70 in 10.0 mi SSW 20.7 mph 28.8 mph N/A   Mostly Cloudy
1:35 PM 78.8 °F - 57.2 °F 47% 29.68 in 10.0 mi South 21.9 mph 29.9 mph N/A   Scattered Clouds
1:55 PM 80.6 °F 80.8 °F 57.2 °F 45% 29.67 in 10.0 mi South 19.6 mph 29.9 mph N/A   Scattered Clouds
2:15 PM 80.6 °F 80.5 °F 55.4 °F 42% 29.66 in 10.0 mi South 26.5 mph 34.5 mph N/A   Scattered Clouds
2:35 PM 82.4 °F 82.0 °F 57.2 °F 42% 29.66 in 10.0 mi SSW 19.6 mph 33.4 mph N/A   Scattered Clouds
2:55 PM 80.6 °F 80.5 °F 55.4 °F 42% 29.65 in 10.0 mi SSW 23.0 mph 31.1 mph N/A   Scattered Clouds
3:15 PM 82.4 °F 81.7 °F 55.4 °F 39% 29.65 in 10.0 mi SSW 19.6 mph 29.9 mph N/A   Mostly Cloudy
3:35 PM 82.4 °F 81.7 °F 55.4 °F 39% 29.64 in 10.0 mi SSW 23.0 mph 31.1 mph N/A   Scattered Clouds
3:55 PM 84.2 °F 83.0 °F 55.4 °F 37% 29.63 in 10.0 mi SSW 16.1 mph 24.2 mph N/A   Mostly Cloudy
4:15 PM 82.4 °F 81.7 °F 55.4 °F 39% 29.63 in 10.0 mi SSW 20.7 mph 31.1 mph N/A   Mostly Cloudy
4:35 PM 82.4 °F 81.7 °F 55.4 °F 39% 29.62 in 10.0 mi SSW 19.6 mph 25.3 mph N/A   Mostly Cloudy
4:55 PM 82.4 °F 81.4 °F 53.6 °F 37% 29.61 in 10.0 mi South 17.3 mph 24.2 mph N/A   Scattered Clouds
5:15 PM 82.4 °F 81.4 °F 53.6 °F 37% 29.60 in 10.0 mi South 21.9 mph - N/A   Partly Cloudy
5:35 PM 82.4 °F 81.7 °F 55.4 °F 39% 29.60 in 10.0 mi SSW 16.1 mph 21.9 mph N/A   Clear
5:55 PM 82.4 °F 81.7 °F 55.4 °F 39% 29.60 in 10.0 mi South 17.3 mph 26.5 mph N/A   Clear
6:15 PM 80.6 °F 80.5 °F 55.4 °F 42% 29.60 in 10.0 mi South 16.1 mph 21.9 mph N/A   Clear
6:35 PM 80.6 °F 80.5 °F 55.4 °F 42% 29.60 in 10.0 mi South 16.1 mph - N/A   Clear
6:55 PM 78.8 °F - 55.4 °F 44% 29.60 in 10.0 mi South 12.7 mph - N/A   Clear
7:15 PM 78.8 °F - 55.4 °F 44% 29.60 in 10.0 mi South 10.4 mph - N/A   Scattered Clouds
7:35 PM 77.0 °F - 55.4 °F 47% 29.60 in 10.0 mi South 10.4 mph - N/A   Scattered Clouds
7:55 PM 75.2 °F - 55.4 °F 50% 29.60 in 10.0 mi SSE 8.1 mph - N/A   Partly Cloudy
8:15 PM 75.2 °F - 55.4 °F 50% 29.60 in 10.0 mi SSE 6.9 mph - N/A   Clear
8:35 PM 75.2 °F - 55.4 °F 50% 29.60 in 10.0 mi SE 5.8 mph - N/A   Clear
8:55 PM 75.2 °F - 55.4 °F 50% 29.59 in 10.0 mi SSE 8.1 mph - N/A   Partly Cloudy
9:15 PM 73.4 °F - 55.4 °F 53% 29.57 in 10.0 mi SE 10.4 mph - N/A   Scattered Clouds
9:35 PM 73.4 °F - 55.4 °F 53% 29.58 in - SSE 9.2 mph - N/A   Scattered Clouds
9:55 PM 71.6 °F - 55.4 °F 57% 29.59 in 10.0 mi SSE 8.1 mph - N/A   Partly Cloudy
10:15 PM 71.6 °F - 55.4 °F 57% 29.58 in 10.0 mi SSE 8.1 mph - N/A   Partly Cloudy
10:35 PM 69.8 °F - 55.4 °F 60% 29.57 in 10.0 mi South 10.4 mph - N/A   Partly Cloudy
10:55 PM 69.8 °F - 55.4 °F 60% 29.57 in 10.0 mi South 11.5 mph - N/A   Mostly Cloudy
11:15 PM 69.8 °F - 55.4 °F 60% 29.57 in 10.0 mi South 12.7 mph - N/A   Mostly Cloudy
11:35 PM 73.4 °F - 57.2 °F 57% 29.58 in 10.0 mi South 16.1 mph 23.0 mph N/A   Mostly Cloudy
11:55 PM 73.4 °F - 57.2 °F 57% 29.59 in 10.0 mi SSW 19.6 mph - N/A   Overcast